TimeEDT,TemperatureF,Dew PointF,Humidity,Sea Level PressureIn,VisibilityMPH,Wind Direction,Wind SpeedMPH,Gust SpeedMPH,PrecipitationIn,Events,Conditions,WindDirDegrees,DateUTC
12:51 AM,55.9,48.0,75,30.12,10.0,SSW,4.6,-,N/A,,Clear,200,2012-10-24 04:51:00
1:51 AM,59.0,48.0,67,30.11,10.0,South,4.6,-,N/A,,Clear,190,2012-10-24 05:51:00
2:51 AM,57.0,48.0,72,30.11,10.0,South,3.5,-,N/A,,Clear,180,2012-10-24 06:51:00
3:51 AM,55.0,48.0,77,30.12,10.0,South,3.5,-,N/A,,Mostly Cloudy,190,2012-10-24 07:51:00
4:51 AM,57.9,48.0,70,30.12,10.0,South,4.6,-,N/A,,Clear,170,2012-10-24 08:51:00
5:51 AM,59.0,48.0,67,30.13,10.0,SSE,3.5,-,N/A,,Mostly Cloudy,160,2012-10-24 09:51:00
6:51 AM,54.0,48.9,83,30.18,10.0,Calm,Calm,-,N/A,,Overcast,0,2012-10-24 10:51:00
7:51 AM,55.9,48.0,75,30.19,10.0,Calm,Calm,-,N/A,,Overcast,0,2012-10-24 11:51:00
8:51 AM,60.8,51.8,72,30.25,10.0,Calm,Calm,-,N/A,,Mostly Cloudy,0,2012-10-24 12:51:00
9:51 AM,64.9,48.9,56,30.20,10.0,West,3.5,-,N/A,,Scattered Clouds,260,2012-10-24 13:51:00
10:51 AM,66.0,48.0,52,30.20,10.0,West,3.5,-,N/A,,Overcast,270,2012-10-24 14:51:00
11:51 AM,70.0,48.0,46,30.18,10.0,Variable,3.5,-,N/A,,Overcast,0,2012-10-24 15:51:00
12:51 PM,72.0,46.0,40,30.15,10.0,Variable,5.8,-,N/A,,Clear,0,2012-10-24 16:51:00
2:51 PM,75.0,46.0,36,30.10,10.0,Variable,3.5,-,N/A,,Clear,0,2012-10-24 18:51:00
3:51 PM,75.0,44.1,33,30.09,10.0,SW,5.8,-,N/A,,Clear,220,2012-10-24 19:51:00
4:51 PM,75.0,42.1,31,30.08,10.0,West,4.6,-,N/A,,Clear,280,2012-10-24 20:51:00
5:51 PM,73.0,41.0,31,30.08,10.0,West,3.5,-,N/A,,Clear,260,2012-10-24 21:51:00
6:51 PM,68.0,41.0,37,30.11,10.0,SW,4.6,-,N/A,,Clear,230,2012-10-24 22:51:00
7:51 PM,62.1,42.1,48,30.13,10.0,Calm,Calm,-,N/A,,Clear,0,2012-10-24 23:51:00
8:51 PM,60.1,42.1,51,30.13,10.0,Calm,Calm,-,N/A,,Clear,0,2012-10-25 00:51:00
9:51 PM,60.1,41.0,49,30.12,10.0,Calm,Calm,-,N/A,,Clear,0,2012-10-25 01:51:00
10:51 PM,59.0,42.1,53,30.12,10.0,SE,3.5,-,N/A,,Clear,130,2012-10-25 02:51:00
11:51 PM,55.9,42.1,60,30.12,10.0,Calm,Calm,-,N/A,,Clear,0,2012-10-25 03:51:00